Regional Weather Roundup
Issued by NWS

Home | Current Version | Previous Version | Graphics & Text | Print | Product List | Glossary On
Versions: 1 2 3 4 5 6 7 8 9 10 11 12 13 14 15 16 17 18 19 20 21 22 23 24 25 26 27 28 29 30 31 32 33 34 35 36 37 38 39 40 41 42 43 44 45 46 47 48 49 50
256
ASUS45 KABQ 231510
RWRNM
NEW MEXICO REGIONAL WEATHER ROUNDUP
NATIONAL WEATHER SERVICE ALBUQUERQUE NM
900 AM MDT FRI JUN 23 2017

NOTE: "FAIR" MEANS FEW OR NO CLOUDS BELOW 12,000 FEET AGL WITH NO
       SIGNIFICANT WEATHER OR OBSTRUCTIONS TO VISION.

      THIS PRODUCT IS RELEASED AS TWO VERSIONS.  ONE VERSION NEAR
      THE TOP OF THE HOUR CONTAINING PRELIMINARY DATA FROM ALBUQUERQUE
      AND OTHER STATIONS.  A FINAL VERSION WITH ADDITIONAL DATA IS
      ISSUED ABOUT 10 MINUTES AFTER THE HOUR.

NMZ501-503-504-510>518-231600-
NORTHWEST PLATEAU/NORTHCENTRAL MOUNTAINS

CITY           SKY/WX    TMP DP  RH WIND       PRES   REMARKS
FARMINGTON     FAIR      76  28  17 SW9       30.10R
LOS ALAMOS     FAIR      70  35  28 S3        30.23R
SANTA FE       FAIR      73  43  33 S6        30.16R
TAOS           FAIR      66  36  32 N5        30.23R
ANGEL FIRE     FAIR      55  45  68 CALM      30.35R

$$
NMZ402-403-502-505>509-231600-
WESTCENTRAL MOUNTAINS/SOUTHWEST MOUNTAINS

CITY           SKY/WX    TMP DP  RH WIND       PRES   REMARKS
GALLUP         FAIR      71  25  17 NE3       30.21R
GRANTS         FAIR      76  25  15 N5        30.22R
SILVER CITY    FAIR      85  39  19 NW9       30.08R

$$
NMZ407-409-411-412-231600-
SOUTHERN DESERTS

CITY           SKY/WX    TMP DP  RH WIND       PRES   REMARKS
DEMING         FAIR      86  43  22 W3        29.98R
LAS CRUCES     FAIR      92  31  11 N14G20    29.96R
HOLLOMAN AFB   FAIR      86  40  19 NW12      29.94R
ALAMOGORDO     FAIR      88  39  18 NW8       29.94R
T OR C         FAIR      87  34  15 N12       30.02R

$$
NMZ519>523-231600-
CENTRAL VALLEYS/CENTRAL HIGHLANDS

CITY           SKY/WX    TMP DP  RH WIND       PRES   REMARKS
ALBUQUERQUE    PTSUNNY   76  32  20 N8        30.10R
DOUBLE EAGLE   MOSUNNY   81  30  16 N7        30.14R
MORIARTY ARPT  FAIR      74  47  39 CALM      30.19R
CLINES CORNERS FAIR      68  49  50 E9        30.22R
BELEN          FAIR      83  31  14 N7        30.08R
SOCORRO        FAIR      85  32  14 NE5       30.04R

$$
NMZ524>526-539-540-231600-
SOUTHCENTRAL MOUNTAINS

CITY           SKY/WX    TMP DP  RH WIND       PRES   REMARKS
RUIDOSO        FAIR      73  50  43 N7        30.19R

$$
NMZ527>531-231600-
NORTHEAST HIGHLANDS/NORTHEAST PLAINS

CITY           SKY/WX    TMP DP  RH WIND       PRES   REMARKS
LAS VEGAS      FAIR      69  49  48 NE15      30.21R
RATON          FAIR      69  54  58 N16G26    30.23R
CLAYTON        CLOUDY    62  57  83 N28G36    30.19R

$$
NMZ532>537-231600-
EASTCENTRAL PLAINS

CITY           SKY/WX    TMP DP  RH WIND       PRES   REMARKS
TUCUMCARI      FAIR      79  59  50 NE16      30.03R
CANNON AFB     FAIR      83  56  40 E14       30.00R
CLOVIS AIRPORT FAIR      80  60  50 NE14      30.00R

$$
NMZ028-029-538-231600-
SOUTHEAST PLAINS

CITY           SKY/WX    TMP DP  RH WIND       PRES   REMARKS
ROSWELL        FAIR      84  56  38 N10       29.93R
ARTESIA        FAIR      84  55  37 N8G15     29.93R
CARLSBAD       FAIR      85  58  39 NW5       29.88R
HOBBS          SUNNY     88  54  31 SE14      29.92R


$$




USA.gov is the U.S. government's official web portal to all federal, state and local government web resources and services.